FRS55 LOLH-LOLH

Flight info

Callsign FRS55
Flight time 0h 5m
Altitude 3000
Route PATTERN
Aircraft C182/L-V/N

Departure

Time 2026-05-05 18:45
Airport Hofkirchen Airfield (LOLH)

Arrival

Time 2026-05-05 18:50
Airport Hofkirchen Airfield (LOLH)
Time Latitude Longitude Altitude Speed Heading
2026-05-05 18:38 48.13977 14.33359 1179 ft 0 kts 259°
2026-05-05 18:42 48.13993 14.33331 1175 ft 9 kts 348°
2026-05-05 18:43 48.14014 14.33376 1177 ft 6 kts 80°
2026-05-05 18:43 48.14026 14.33511 1174 ft 21 kts 89°
2026-05-05 18:43 48.14019 14.33778 1176 ft 22 kts 87°
2026-05-05 18:43 48.14005 14.33891 1176 ft 10 kts 151°
2026-05-05 18:44 48.13992 14.33896 1176 ft 0 kts 168°
2026-05-05 18:44 48.13988 14.33897 1176 ft 7 kts 170°
2026-05-05 18:44 48.13931 14.33763 1177 ft 35 kts 260°
2026-05-05 18:44 48.13859 14.33166 1258 ft 71 kts 259°
2026-05-05 18:45 48.13742 14.32445 1500 ft 70 kts 257°
2026-05-05 18:45 48.13648 14.31705 1662 ft 82 kts 263°
2026-05-05 18:45 48.13584 14.30832 1932 ft 83 kts 262°
2026-05-05 18:45 48.13430 14.29897 2060 ft 101 kts 244°
2026-05-05 18:46 48.12771 14.29462 2099 ft 116 kts 174°
2026-05-05 18:46 48.12028 14.29814 2252 ft 112 kts 162°
2026-05-05 18:46 48.11275 14.30222 2300 ft 116 kts 161°
2026-05-05 18:46 48.10694 14.31057 2260 ft 128 kts 110°
2026-05-05 18:47 48.10769 14.32388 2314 ft 125 kts 77°
2026-05-05 18:47 48.10960 14.33656 2393 ft 125 kts 78°
2026-05-05 18:47 48.11138 14.34870 2535 ft 115 kts 77°
2026-05-05 18:47 48.11285 14.35935 2539 ft 97 kts 77°
2026-05-05 18:48 48.11490 14.36881 2267 ft 96 kts 70°
2026-05-05 18:48 48.11975 14.37355 2071 ft 87 kts 355°
2026-05-05 18:48 48.12526 14.37127 1918 ft 78 kts 342°
2026-05-05 18:48 48.13024 14.36929 1780 ft 73 kts 344°
2026-05-05 18:49 48.13522 14.36808 1651 ft 72 kts 351°
2026-05-05 18:49 48.14007 14.36681 1559 ft 69 kts 332°
2026-05-05 18:49 48.14161 14.36051 1451 ft 69 kts 269°
2026-05-05 18:49 48.14105 14.35358 1374 ft 65 kts 262°
2026-05-05 18:50 48.14033 14.34707 1310 ft 61 kts 258°
2026-05-05 18:50 48.13970 14.34112 1208 ft 54 kts 261°
2026-05-05 18:50 48.13912 14.33625 1180 ft 49 kts 261°
2026-05-05 18:50 48.13838 14.32961 1351 ft 66 kts 259°
2026-05-05 18:51 48.13693 14.32264 1469 ft 88 kts 246°
2026-05-05 18:51 48.13478 14.31340 1688 ft 96 kts 256°
2026-05-05 18:51 48.13310 14.30386 1993 ft 95 kts 254°
2026-05-05 18:51 48.13048 14.29560 2221 ft 93 kts 221°
2026-05-05 18:52 48.12363 14.29571 2198 ft 104 kts 165°
2026-05-05 18:52 48.11688 14.29918 2315 ft 100 kts 162°
2026-05-05 18:52 48.11026 14.30226 2348 ft 100 kts 155°
2026-05-05 18:52 48.10800 14.31191 2182 ft 111 kts 82°
2026-05-05 18:53 48.10934 14.32300 2178 ft 103 kts 79°
2026-05-05 18:53 48.11046 14.33344 2204 ft 99 kts 76°
2026-05-05 18:53 48.11168 14.34379 2041 ft 102 kts 77°
2026-05-05 18:53 48.11294 14.35380 1957 ft 96 kts 76°
2026-05-05 18:54 48.11437 14.36325 1952 ft 89 kts 73°
2026-05-05 18:54 48.11811 14.36930 1855 ft 87 kts 360°
2026-05-05 18:54 48.12373 14.36706 1747 ft 75 kts 336°
2026-05-05 18:54 48.12859 14.36608 1681 ft 67 kts 350°
2026-05-05 18:55 48.13331 14.36526 1622 ft 66 kts 349°
2026-05-05 18:55 48.13796 14.36449 1544 ft 68 kts 349°
2026-05-05 18:55 48.14022 14.35925 1464 ft 68 kts 275°
2026-05-05 18:55 48.14083 14.35265 1421 ft 62 kts 270°
2026-05-05 18:56 48.14033 14.34620 1317 ft 61 kts 261°
2026-05-05 18:56 48.13961 14.34038 1204 ft 53 kts 260°
2026-05-05 18:56 48.13907 14.33555 1186 ft 53 kts 262°
2026-05-05 18:56 48.13829 14.32961 1440 ft 55 kts 255°
2026-05-05 18:57 48.13713 14.32392 1705 ft 64 kts 257°
2026-05-05 18:57 48.13596 14.31691 1981 ft 73 kts 258°
2026-05-05 18:57 48.13468 14.30925 2346 ft 69 kts 260°
2026-05-05 18:57 48.13253 14.30228 2408 ft 99 kts 249°
2026-05-05 18:58 48.13009 14.29335 2896 ft 62 kts 254°
2026-05-05 18:58 48.12549 14.28849 2584 ft 125 kts 197°
2026-05-05 18:58 48.11758 14.28964 2729 ft 110 kts 174°
2026-05-05 18:58 48.10936 14.29192 2474 ft 124 kts 174°
2026-05-05 18:59 48.10386 14.30022 2322 ft 126 kts 93°
2026-05-05 18:59 48.10532 14.31279 2127 ft 120 kts 72°
2026-05-05 18:59 48.10729 14.32443 1986 ft 102 kts 70°
2026-05-05 18:59 48.10871 14.33376 2035 ft 87 kts 67°
2026-05-05 19:00 48.11018 14.34245 1911 ft 85 kts 68°
2026-05-05 19:00 48.11195 14.35098 1886 ft 84 kts 68°
2026-05-05 19:00 48.11359 14.35972 1823 ft 89 kts 69°
2026-05-05 19:00 48.11499 14.36832 1846 ft 84 kts 67°
2026-05-05 19:01 48.11966 14.37120 1811 ft 79 kts 336°
2026-05-05 19:01 48.12510 14.36992 1776 ft 80 kts 356°
2026-05-05 19:01 48.13062 14.37013 1778 ft 73 kts 358°
2026-05-05 19:01 48.13553 14.37024 1739 ft 70 kts 354°
2026-05-05 19:02 48.13986 14.36865 1794 ft 65 kts 308°
2026-05-05 19:02 48.14091 14.36142 1722 ft 77 kts 277°
2026-05-05 19:02 48.14043 14.35279 1492 ft 91 kts 266°
2026-05-05 19:02 48.13993 14.34432 1328 ft 70 kts 269°
2026-05-05 19:03 48.13933 14.33782 1182 ft 50 kts 264°
2026-05-05 19:03 48.13870 14.33231 1247 ft 62 kts 264°
2026-05-05 19:03 48.13755 14.32537 1453 ft 73 kts 260°
2026-05-05 19:03 48.13586 14.31858 1772 ft 73 kts 256°
2026-05-05 19:04 48.13474 14.31062 1953 ft 82 kts 262°
2026-05-05 19:04 48.13284 14.30221 2147 ft 89 kts 252°
2026-05-05 19:04 48.12673 14.29915 2246 ft 120 kts 168°
2026-05-05 19:04 48.11930 14.30383 2382 ft 114 kts 180°
2026-05-05 19:05 48.11175 14.30434 2447 ft 107 kts 187°
2026-05-05 19:05 48.10566 14.30954 2335 ft 112 kts 100°
2026-05-05 19:05 48.10694 14.32075 2297 ft 105 kts 77°
2026-05-05 19:05 48.10801 14.33051 2391 ft 94 kts 71°
2026-05-05 19:06 48.10943 14.33995 2404 ft 92 kts 70°
2026-05-05 19:06 48.11129 14.34926 2313 ft 98 kts 62°
2026-05-05 19:06 48.11307 14.35875 2285 ft 90 kts 69°
2026-05-05 19:06 48.11377 14.36789 2221 ft 84 kts 78°
2026-05-05 19:07 48.11457 14.37687 2158 ft 91 kts 88°
2026-05-05 19:07 48.11575 14.38516 2213 ft 80 kts 49°
2026-05-05 19:07 48.11939 14.39053 2256 ft 71 kts
2026-05-05 19:07 48.12405 14.38992 2279 ft 71 kts 351°
2026-05-05 19:08 48.12854 14.38875 2402 ft 69 kts 336°
2026-05-05 19:08 48.13370 14.38653 2224 ft 85 kts 335°
2026-05-05 19:08 48.13920 14.38353 2064 ft 84 kts 334°
2026-05-05 19:08 48.14248 14.37769 1929 ft 76 kts 274°
2026-05-05 19:09 48.14245 14.36962 1757 ft 77 kts 270°
2026-05-05 19:09 48.14203 14.36137 1682 ft 79 kts 266°
2026-05-05 19:09 48.14108 14.35410 1521 ft 66 kts 270°
2026-05-05 19:09 48.14042 14.34775 1360 ft 60 kts 269°
2026-05-05 19:10 48.13971 14.34165 1221 ft 57 kts 267°
2026-05-05 19:10 48.13920 14.33677 1184 ft 40 kts 261°
2026-05-05 19:10 48.13845 14.33073 1263 ft 71 kts 258°
2026-05-05 19:10 48.13733 14.32288 1470 ft 78 kts 259°
2026-05-05 19:11 48.13597 14.31487 1703 ft 87 kts 259°
2026-05-05 19:11 48.13422 14.30489 1792 ft 103 kts 257°
2026-05-05 19:11 48.13020 14.29646 1857 ft 108 kts 202°
2026-05-05 19:11 48.12257 14.29642 1921 ft 108 kts 182°
2026-05-05 19:12 48.11527 14.29666 1923 ft 101 kts 174°
2026-05-05 19:12 48.10864 14.29927 1837 ft 100 kts 144°
2026-05-05 19:12 48.10648 14.30861 1773 ft 93 kts 79°
2026-05-05 19:12 48.10711 14.31821 1807 ft 90 kts 77°
2026-05-05 19:13 48.10794 14.32747 1884 ft 91 kts 73°
2026-05-05 19:13 48.10930 14.33683 2014 ft 91 kts 68°
2026-05-05 19:13 48.11078 14.34624 2007 ft 97 kts 74°
2026-05-05 19:13 48.11229 14.35651 2097 ft 95 kts 69°
2026-05-05 19:14 48.11384 14.36661 2014 ft 109 kts 74°
2026-05-05 19:14 48.11494 14.37751 2150 ft 100 kts 69°
2026-05-05 19:14 48.11718 14.38666 2233 ft 87 kts 27°
2026-05-05 19:14 48.12273 14.38726 2172 ft 89 kts 351°
2026-05-05 19:15 48.12893 14.38724 2178 ft 91 kts 356°
2026-05-05 19:15 48.13530 14.38691 2060 ft 90 kts 346°
2026-05-05 19:15 48.14074 14.38557 2021 ft 71 kts 338°
2026-05-05 19:15 48.14296 14.38013 1910 ft 78 kts 258°
2026-05-05 19:16 48.14029 14.37271 1737 ft 76 kts 251°
2026-05-05 19:16 48.14087 14.36486 1633 ft 81 kts 279°
2026-05-05 19:16 48.14115 14.35652 1534 ft 72 kts 270°
2026-05-05 19:16 48.14067 14.35008 1417 ft 61 kts 267°
2026-05-05 19:17 48.14000 14.34387 1273 ft 60 kts 264°
2026-05-05 19:17 48.13938 14.33842 1180 ft 44 kts 264°
2026-05-05 19:17 48.13899 14.33483 1184 ft 29 kts 262°
2026-05-05 19:17 48.13912 14.33331 1181 ft 5 kts 319°
2026-05-05 19:18 48.13921 14.33325 1183 ft 0 kts 346°